134P/Kowal-Vavrova (2014)

Japanese version
Home page
Updated on April 30, 2009

---------------------------------------------------------------------

* Profile

* Orbital Elements

Perturbed ephemeris below is based on elements from MPC 31205. 

 Epoch = 2456800.50000 TT   T = 2456798.95701 TT
 Peri. =   18.58174         a =     6.2312829 AU
 Node  =  202.12237 J2000.0 e =     0.5873538
 Incl. =    4.34888         q =     2.5713154 AU

* Finding Charts

* Magnitudes Graph

        m1 = 0 + 5 log d + 30 log r(t - 80)

---------------------------------------------------------------------

The orbital elements are calculated using the Minor Planet & Comet Ephemeris Service.
The charts are made with StellaNavigator Ver.8 (AstroArts).
The magnitudes graphs are made with Comet for Windows.

---------------------------------------------------------------------

Copyright(C) Seiichi Yoshida (comet@aerith.net). All rights reserved.